TimeCST,TemperatureF,Dew PointF,Humidity,Sea Level PressureIn,VisibilityMPH,Wind Direction,Wind SpeedMPH,Gust SpeedMPH,PrecipitationIn,Events,Conditions,WindDirDegrees,DateUTC
12:51 AM,39.2,30.2,70,29.84,10.0,SW,9.2,-,N/A,,Partly Cloudy,230,2013-02-14 06:51:00
1:51 AM,41.0,30.0,65,29.83,10.0,SW,11.5,-,N/A,,Mostly Cloudy,230,2013-02-14 07:51:00
2:51 AM,42.8,30.2,61,29.83,10.0,SW,10.4,-,N/A,,Mostly Cloudy,230,2013-02-14 08:51:00
3:51 AM,42.1,30.0,62,29.82,10.0,SW,10.4,-,N/A,,Mostly Cloudy,230,2013-02-14 09:51:00
4:51 AM,41.0,30.2,65,29.82,10.0,WSW,9.2,-,N/A,,Scattered Clouds,250,2013-02-14 10:51:00
5:51 AM,41.0,30.2,65,29.82,10.0,WSW,11.5,-,N/A,,Partly Cloudy,250,2013-02-14 11:51:00
6:51 AM,39.9,30.0,68,29.86,10.0,WSW,10.4,-,N/A,,Scattered Clouds,250,2013-02-14 12:51:00
7:51 AM,42.1,30.0,62,29.90,10.0,West,12.7,-,N/A,,Mostly Cloudy,260,2013-02-14 13:51:00
8:51 AM,46.0,30.0,54,29.92,10.0,West,12.7,-,N/A,,Scattered Clouds,280,2013-02-14 14:51:00
9:51 AM,50.0,30.9,48,29.93,10.0,West,11.5,-,N/A,,Scattered Clouds,280,2013-02-14 15:51:00
10:51 AM,51.1,32.0,48,29.94,10.0,WNW,12.7,21.9,N/A,,Scattered Clouds,300,2013-02-14 16:51:00
11:51 AM,54.0,32.0,43,29.94,10.0,WNW,13.8,23.0,N/A,,Scattered Clouds,300,2013-02-14 17:51:00
12:51 PM,55.9,32.0,40,29.93,10.0,WNW,13.8,20.7,N/A,,Scattered Clouds,290,2013-02-14 18:51:00
1:51 PM,57.0,30.9,37,29.92,10.0,WNW,9.2,19.6,N/A,,Mostly Cloudy,300,2013-02-14 19:51:00
2:51 PM,55.9,30.0,37,29.94,10.0,WNW,15.0,21.9,N/A,,Mostly Cloudy,300,2013-02-14 20:51:00
3:51 PM,54.0,28.9,38,29.96,10.0,NW,17.3,24.2,N/A,,Mostly Cloudy,310,2013-02-14 21:51:00
4:51 PM,52.0,30.0,43,29.97,10.0,NW,15.0,24.2,N/A,,Mostly Cloudy,320,2013-02-14 22:51:00
5:51 PM,48.0,30.0,50,30.01,10.0,NW,11.5,-,N/A,,Mostly Cloudy,320,2013-02-14 23:51:00
6:51 PM,46.0,30.9,56,30.04,10.0,WNW,5.8,-,N/A,,Mostly Cloudy,300,2013-02-15 00:51:00
7:51 PM,45.0,30.0,56,30.06,10.0,WNW,5.8,-,N/A,,Mostly Cloudy,300,2013-02-15 01:51:00
8:51 PM,43.0,30.0,60,30.06,10.0,WNW,8.1,-,N/A,,Mostly Cloudy,290,2013-02-15 02:51:00
9:51 PM,43.0,28.9,58,30.06,10.0,NW,8.1,-,N/A,,Mostly Cloudy,310,2013-02-15 03:51:00
10:51 PM,44.1,28.0,53,30.07,10.0,NW,6.9,-,N/A,,Mostly Cloudy,310,2013-02-15 04:51:00
11:51 PM,41.0,28.0,60,30.08,10.0,NW,3.5,-,N/A,,Mostly Cloudy,310,2013-02-15 05:51:00